Location: Ch�ze
(42.9000°N, 0.0333°W)
Time: 00:10:15
(UTC+00:00)

Cosmos 1833 Rocket - Pass Details

Date: 24 January 2021
Orbit: 833 x 839 km, 71.0° (Epoch: 24 February)

Event Time Altitude Azimuth Distance (km) Brightness Sun altitude
Rises 18:24:51 0° 342° (NNW) 3,390 5.9 -15.0°
Reaches altitude 10° 18:27:32 10° 351° (N) 2,453 5.1 -15.5°
Maximum altitude 18:32:37 34° 56° (NE) 1,354 3.3 -16.4°
Enters shadow 18:34:43 26° 95° (E) 1,596 3.6 -16.8°
